Regional Weather Roundup
Issued by NWS Charleston, WV

Home | Current Version | Previous Version | Graphics & Text | Print | Product List | Glossary On
Versions: 1 2 3 4 5 6 7 8 9 10 11 12 13 14 15 16 17 18 19 20 21 22 23 24 25 26 27 28
000
ASUS41 KRLX 152010
RWRRLX
West Virginia Regional Weather Roundup
National Weather Service Charleston WV
400 PM EDT TUE APR 15 2014

Note: "fair" indicates few or no clouds below 12,000 feet with no
significant weather and/or obstructions to visibility.

WVZ003-152100-
Northern Panhandle of West Virginia

CITY           SKY/WX    TMP DP  RH WIND       PRES   REMARKS
WHEELING       CLOUDY    30  26  85 NW15G24   29.95R
$$

WVZ009-152100-
Northwest West Virginia

CITY           SKY/WX    TMP DP  RH WIND       PRES   REMARKS
PARKERSBURG    CLOUDY    35  26  69 NW15G22   30.04R
$$

WVZ006-152100-
Western West Virginia

CITY           SKY/WX    TMP DP  RH WIND       PRES   REMARKS
HUNTINGTON     CLOUDY    36  27  69 NW9       30.05S
$$

WVZ015-152100-
West Central West Virginia

CITY           SKY/WX    TMP DP  RH WIND       PRES   REMARKS
CHARLESTON     FLURRIES  36  31  82 W15G21    30.02R
$$

WVZ031-152100-
North Central West Virginia

CITY           SKY/WX    TMP DP  RH WIND       PRES   REMARKS
CLARKSBURG     SNOW      33  31  92 NW9       29.93R VSB 1/2
MORGANTOWN     LGT SNOW  35  31  85 NW6       29.92R VSB 3/4
$$

WVZ035-042-045-152100-
South Central West Virginia

CITY           SKY/WX    TMP DP  RH WIND       PRES   REMARKS
BECKLEY        SNOW      30  27  88 NW13      29.91R VSB 1/2
BLUEFIELD      LGT SNOW  33  28  81 NW12      29.87S
LEWISBURG      CLOUDY    34  29  84 NW6       29.87R
$$

WVZ047-152100-
Northern Mountains of West Virginia

CITY           SKY/WX    TMP DP  RH WIND       PRES   REMARKS
ELKINS         LGT SNOW  34  30  85 NW15      29.88R FOG
$$

WVZ052-152100-
Eastern Panhandle of West Virginia

CITY           SKY/WX    TMP DP  RH WIND       PRES   REMARKS
MARTINSBURG    CLOUDY    45  34  65 NW15      29.77R
PETERSBURG     DRIZZLE   47  37  67 W8        29.84R
$$



USA.gov is the U.S. government's official web portal to all federal, state and local government web resources and services.